GFSSW_prec_pwat_021.txt.gz
Precipitable_Water
0.54 0.54 0.54 0.53 0.52 0.51 0.50 0.49 0.47 0.46 0.44 0.42 0.41 0.40 0.40 0.41 0.39 0.36 0.20 0.25 0.27 0.34 0.38 0.37 0.37 0.37 0.38 0.35 0.34 0.32 0.18 0.15 0.18 0.17 0.17 0.24 0.21 0.27 0.27 0.21 0.22 0.25 0.24 0.27 0.32
0.55 0.55 0.55 0.54 0.53 0.52 0.51 0.50 0.50 0.48 0.46 0.44 0.43 0.41 0.39 0.41 0.31 0.24 0.31 0.29 0.34 0.34 0.30 0.28 0.27 0.31 0.29 0.31 0.32 0.25 0.20 0.18 0.22 0.21 0.20 0.21 0.23 0.24 0.24 0.22 0.20 0.24 0.29 0.32 0.30
0.58 0.57 0.57 0.56 0.56 0.55 0.54 0.53 0.52 0.51 0.49 0.48 0.46 0.44 0.40 0.41 0.24 0.19 0.34 0.33 0.37 0.36 0.34 0.33 0.31 0.29 0.25 0.30 0.29 0.28 0.19 0.23 0.24 0.26 0.25 0.23 0.22 0.25 0.24 0.20 0.22 0.23 0.24 0.25 0.27
0.62 0.61 0.60 0.60 0.59 0.59 0.59 0.59 0.57 0.56 0.54 0.53 0.50 0.47 0.42 0.36 0.14 0.23 0.41 0.41 0.40 0.38 0.33 0.30 0.29 0.26 0.24 0.25 0.29 0.24 0.28 0.28 0.27 0.29 0.26 0.22 0.24 0.24 0.26 0.24 0.27 0.26 0.27 0.27 0.25
0.65 0.64 0.63 0.63 0.63 0.64 0.65 0.64 0.64 0.62 0.61 0.60 0.59 0.54 0.40 0.24 0.23 0.44 0.44 0.46 0.42 0.37 0.32 0.30 0.28 0.27 0.24 0.26 0.30 0.29 0.29 0.30 0.32 0.31 0.31 0.29 0.24 0.25 0.26 0.30 0.30 0.31 0.29 0.28 0.28
0.68 0.70 0.73 0.76 0.79 0.82 0.83 0.82 0.79 0.77 0.75 0.73 0.73 0.70 0.47 0.27 0.41 0.49 0.51 0.47 0.40 0.38 0.35 0.35 0.32 0.35 0.32 0.31 0.30 0.31 0.32 0.31 0.32 0.32 0.33 0.30 0.28 0.29 0.27 0.30 0.29 0.29 0.28 0.30 0.30
0.91 0.93 0.94 0.96 0.96 0.95 0.93 0.89 0.83 0.80 0.78 0.75 0.72 0.65 0.47 0.44 0.60 0.66 0.64 0.55 0.51 0.45 0.40 0.44 0.46 0.40 0.40 0.34 0.40 0.36 0.29 0.31 0.32 0.32 0.32 0.34 0.27 0.29 0.33 0.34 0.32 0.31 0.30 0.30 0.30
0.99 1.00 1.02 1.02 1.02 1.01 0.99 0.93 0.88 0.86 0.81 0.76 0.75 0.64 0.45 0.59 0.65 0.60 0.60 0.55 0.58 0.58 0.55 0.55 0.52 0.45 0.42 0.41 0.37 0.32 0.32 0.26 0.32 0.34 0.35 0.33 0.24 0.30 0.33 0.32 0.31 0.32 0.34 0.35 0.35
1.02 1.05 1.06 1.07 1.07 1.06 1.02 0.93 0.94 0.91 0.87 0.83 0.69 0.57 0.43 0.60 0.53 0.59 0.59 0.52 0.55 0.56 0.55 0.52 0.48 0.41 0.41 0.34 0.30 0.32 0.25 0.27 0.29 0.34 0.34 0.33 0.29 0.34 0.38 0.37 0.35 0.36 0.35 0.35 0.36
1.10 1.11 1.11 1.10 1.09 1.07 1.00 0.92 0.94 0.91 0.86 0.80 0.67 0.50 0.50 0.47 0.55 0.57 0.59 0.56 0.52 0.52 0.49 0.46 0.44 0.39 0.39 0.34 0.26 0.29 0.29 0.29 0.27 0.33 0.35 0.33 0.32 0.36 0.38 0.37 0.35 0.35 0.34 0.35 0.36
1.17 1.17 1.16 1.14 1.13 1.10 0.99 0.88 0.75 0.70 0.72 0.59 0.62 0.57 0.62 0.63 0.66 0.58 0.59 0.54 0.52 0.48 0.40 0.49 0.40 0.36 0.38 0.39 0.37 0.34 0.32 0.29 0.32 0.36 0.33 0.31 0.31 0.33 0.35 0.35 0.35 0.36 0.37 0.36 0.37
1.27 1.24 1.23 1.22 1.21 1.13 1.02 0.82 0.84 0.84 0.60 0.73 0.71 0.69 0.69 0.68 0.55 0.59 0.64 0.51 0.48 0.41 0.45 0.43 0.36 0.42 0.42 0.39 0.35 0.33 0.30 0.29 0.32 0.35 0.34 0.33 0.31 0.34 0.35 0.36 0.38 0.38 0.37 0.37 0.37
1.32 1.28 1.27 1.29 1.26 1.15 1.02 0.97 1.05 0.94 0.64 0.64 0.69 0.66 0.67 0.70 0.62 0.62 0.65 0.58 0.50 0.46 0.45 0.41 0.43 0.45 0.41 0.38 0.34 0.34 0.31 0.31 0.32 0.37 0.35 0.32 0.30 0.35 0.38 0.42 0.42 0.40 0.39 0.41 0.41
1.37 1.37 1.34 1.32 1.11 1.11 0.98 1.10 1.09 1.00 0.52 0.53 0.58 0.61 0.63 0.67 0.57 0.67 0.69 0.61 0.54 0.47 0.48 0.44 0.49 0.44 0.40 0.37 0.38 0.32 0.40 0.38 0.33 0.32 0.29 0.38 0.25 0.34 0.39 0.40 0.38 0.38 0.41 0.42 0.42
1.47 1.42 1.37 1.33 1.18 1.04 1.10 1.16 1.13 0.92 0.33 0.57 0.54 0.68 0.59 0.49 0.48 0.47 0.57 0.52 0.44 0.44 0.43 0.39 0.41 0.40 0.38 0.40 0.44 0.38 0.43 0.38 0.37 0.36 0.35 0.36 0.31 0.33 0.38 0.34 0.34 0.38 0.42 0.43 0.45
1.41 1.36 1.34 1.27 1.22 1.17 1.17 1.13 0.98 0.56 0.35 0.52 0.55 0.51 0.48 0.48 0.46 0.49 0.50 0.54 0.52 0.45 0.46 0.45 0.48 0.45 0.43 0.45 0.46 0.46 0.40 0.40 0.40 0.38 0.27 0.34 0.32 0.30 0.33 0.34 0.34 0.38 0.41 0.45 0.48
1.34 1.34 1.28 1.24 1.01 1.19 1.13 0.95 0.56 0.41 0.57 0.49 0.49 0.51 0.49 0.46 0.47 0.47 0.46 0.44 0.42 0.36 0.37 0.42 0.42 0.44 0.46 0.40 0.43 0.41 0.37 0.29 0.27 0.28 0.25 0.38 0.33 0.34 0.39 0.38 0.37 0.39 0.42 0.45 0.48
1.23 1.26 1.23 1.19 1.17 1.12 1.02 0.70 0.41 0.50 0.51 0.61 0.56 0.54 0.48 0.52 0.50 0.48 0.45 0.41 0.45 0.41 0.36 0.31 0.26 0.39 0.43 0.39 0.36 0.37 0.35 0.28 0.21 0.20 0.24 0.36 0.28 0.32 0.42 0.43 0.45 0.45 0.45 0.47 0.49
1.13 1.06 1.02 1.08 1.14 1.09 0.79 0.48 0.45 0.48 0.54 0.52 0.52 0.44 0.44 0.51 0.49 0.47 0.42 0.38 0.42 0.42 0.30 0.27 0.26 0.42 0.43 0.41 0.38 0.33 0.29 0.36 0.31 0.29 0.26 0.24 0.28 0.34 0.37 0.37 0.41 0.44 0.45 0.45 0.47
0.99 0.94 0.91 1.06 1.08 0.93 0.63 0.47 0.48 0.54 0.56 0.53 0.41 0.42 0.36 0.41 0.39 0.39 0.36 0.39 0.36 0.41 0.44 0.40 0.25 0.33 0.35 0.37 0.36 0.34 0.40 0.30 0.32 0.23 0.19 0.22 0.22 0.23 0.29 0.34 0.39 0.39 0.40 0.44 0.47
0.93 0.74 0.90 1.07 1.02 0.73 0.48 0.49 0.50 0.55 0.57 0.48 0.42 0.38 0.39 0.39 0.40 0.40 0.39 0.42 0.47 0.47 0.48 0.44 0.34 0.22 0.32 0.25 0.23 0.27 0.25 0.27 0.28 0.26 0.19 0.18 0.19 0.29 0.32 0.38 0.39 0.41 0.43 0.45 0.45
0.76 0.56 0.85 0.98 0.56 0.56 0.46 0.48 0.50 0.47 0.48 0.41 0.41 0.37 0.35 0.34 0.33 0.33 0.30 0.34 0.46 0.42 0.32 0.36 0.31 0.21 0.19 0.25 0.33 0.35 0.30 0.31 0.25 0.21 0.26 0.26 0.28 0.44 0.41 0.40 0.42 0.43 0.45 0.47 0.48
0.54 0.52 0.74 0.78 0.38 0.39 0.41 0.38 0.40 0.38 0.37 0.36 0.33 0.36 0.35 0.30 0.26 0.27 0.28 0.36 0.39 0.35 0.31 0.36 0.27 0.19 0.16 0.17 0.30 0.30 0.33 0.35 0.36 0.35 0.26 0.24 0.25 0.43 0.42 0.42 0.47 0.47 0.48 0.47 0.46
0.50 0.37 0.48 0.57 0.45 0.32 0.27 0.26 0.28 0.36 0.32 0.33 0.29 0.31 0.29 0.25 0.30 0.22 0.22 0.29 0.34 0.33 0.36 0.36 0.24 0.19 0.15 0.15 0.20 0.21 0.23 0.25 0.28 0.21 0.20 0.19 0.21 0.28 0.42 0.44 0.44 0.39 0.38 0.38 0.34
0.38 0.28 0.34 0.25 0.30 0.29 0.29 0.24 0.22 0.23 0.30 0.30 0.24 0.25 0.23 0.18 0.19 0.19 0.22 0.26 0.30 0.33 0.30 0.27 0.15 0.18 0.20 0.21 0.21 0.20 0.19 0.18 0.19 0.21 0.20 0.19 0.20 0.20 0.24 0.28 0.27 0.29 0.31 0.30 0.25
0.26 0.23 0.27 0.27 0.28 0.27 0.28 0.23 0.24 0.24 0.24 0.20 0.19 0.22 0.25 0.18 0.18 0.15 0.21 0.23 0.19 0.23 0.21 0.25 0.16 0.17 0.12 0.14 0.15 0.14 0.14 0.15 0.17 0.19 0.19 0.19 0.18 0.21 0.22 0.23 0.23 0.22 0.22 0.19 0.19
0.30 0.30 0.24 0.20 0.20 0.21 0.22 0.23 0.22 0.25 0.27 0.25 0.23 0.21 0.19 0.20 0.24 0.25 0.23 0.23 0.21 0.18 0.18 0.17 0.15 0.13 0.09 0.12 0.13 0.10 0.09 0.13 0.14 0.16 0.17 0.15 0.18 0.20 0.19 0.19 0.19 0.18 0.18 0.18 0.17

GFSSW_prec_pwat_024.txt.gz
Precipitable_Water
0.55 0.54 0.54 0.54 0.54 0.53 0.52 0.51 0.50 0.48 0.46 0.45 0.43 0.42 0.41 0.41 0.38 0.38 0.24 0.29 0.30 0.32 0.37 0.34 0.34 0.34 0.35 0.32 0.32 0.31 0.17 0.14 0.17 0.20 0.21 0.26 0.24 0.27 0.28 0.23 0.23 0.27 0.26 0.28 0.34
0.56 0.55 0.55 0.55 0.55 0.55 0.55 0.54 0.52 0.50 0.49 0.47 0.46 0.44 0.43 0.42 0.32 0.26 0.35 0.35 0.32 0.34 0.30 0.27 0.26 0.30 0.27 0.30 0.31 0.23 0.17 0.17 0.23 0.24 0.23 0.24 0.24 0.25 0.24 0.22 0.21 0.24 0.29 0.33 0.36
0.57 0.58 0.58 0.58 0.58 0.58 0.58 0.57 0.56 0.54 0.53 0.51 0.49 0.47 0.44 0.42 0.27 0.24 0.34 0.32 0.32 0.35 0.34 0.32 0.32 0.30 0.24 0.30 0.30 0.29 0.19 0.22 0.23 0.27 0.29 0.25 0.22 0.24 0.22 0.20 0.22 0.23 0.26 0.30 0.31
0.62 0.62 0.62 0.62 0.62 0.63 0.63 0.63 0.61 0.60 0.58 0.57 0.55 0.53 0.47 0.37 0.15 0.28 0.40 0.39 0.38 0.37 0.32 0.29 0.27 0.25 0.24 0.24 0.31 0.25 0.31 0.30 0.30 0.31 0.30 0.28 0.29 0.25 0.25 0.24 0.28 0.27 0.29 0.30 0.29
0.67 0.66 0.66 0.66 0.67 0.68 0.69 0.70 0.70 0.69 0.69 0.69 0.68 0.65 0.53 0.33 0.27 0.47 0.44 0.44 0.40 0.37 0.30 0.29 0.26 0.28 0.23 0.25 0.27 0.28 0.31 0.35 0.34 0.34 0.33 0.34 0.32 0.32 0.30 0.31 0.33 0.31 0.29 0.29 0.29
0.68 0.68 0.70 0.74 0.78 0.83 0.86 0.87 0.84 0.79 0.76 0.74 0.72 0.69 0.51 0.33 0.54 0.64 0.56 0.48 0.41 0.38 0.35 0.36 0.33 0.35 0.29 0.29 0.30 0.34 0.35 0.35 0.35 0.34 0.34 0.33 0.33 0.35 0.32 0.36 0.35 0.34 0.33 0.33 0.32
0.82 0.86 0.89 0.93 0.95 0.96 0.95 0.92 0.86 0.83 0.80 0.78 0.76 0.64 0.48 0.43 0.63 0.70 0.61 0.56 0.56 0.51 0.43 0.46 0.46 0.40 0.37 0.35 0.42 0.40 0.34 0.34 0.34 0.35 0.34 0.36 0.31 0.31 0.36 0.37 0.34 0.34 0.36 0.37 0.36
0.96 0.98 0.99 1.00 1.00 0.99 0.98 0.94 0.88 0.89 0.84 0.81 0.80 0.67 0.45 0.60 0.67 0.62 0.64 0.59 0.61 0.59 0.54 0.56 0.53 0.45 0.42 0.44 0.40 0.34 0.33 0.28 0.35 0.37 0.38 0.35 0.26 0.34 0.39 0.38 0.37 0.38 0.39 0.37 0.38
0.99 1.00 1.03 1.04 1.05 1.04 1.02 0.95 0.91 0.90 0.86 0.84 0.73 0.61 0.44 0.59 0.53 0.59 0.61 0.54 0.59 0.58 0.57 0.55 0.52 0.43 0.42 0.36 0.32 0.34 0.28 0.30 0.33 0.39 0.36 0.34 0.29 0.36 0.39 0.37 0.36 0.38 0.38 0.38 0.38
1.03 1.05 1.07 1.08 1.06 1.05 1.00 0.95 0.92 0.88 0.88 0.81 0.70 0.52 0.52 0.48 0.55 0.58 0.60 0.58 0.51 0.52 0.49 0.48 0.44 0.38 0.38 0.35 0.29 0.33 0.33 0.35 0.33 0.38 0.38 0.35 0.33 0.37 0.38 0.37 0.36 0.37 0.38 0.38 0.39
1.11 1.14 1.14 1.13 1.13 1.12 1.02 0.91 0.75 0.71 0.74 0.60 0.65 0.57 0.63 0.66 0.68 0.63 0.65 0.58 0.54 0.48 0.37 0.43 0.35 0.32 0.37 0.40 0.39 0.39 0.36 0.34 0.35 0.37 0.33 0.32 0.32 0.35 0.38 0.39 0.38 0.39 0.40 0.41 0.41
1.21 1.24 1.23 1.21 1.20 1.15 1.05 0.81 0.83 0.85 0.61 0.75 0.73 0.73 0.76 0.73 0.59 0.61 0.66 0.52 0.49 0.42 0.46 0.44 0.37 0.43 0.44 0.42 0.40 0.38 0.35 0.33 0.36 0.38 0.35 0.34 0.33 0.37 0.41 0.41 0.42 0.42 0.42 0.44 0.45
1.28 1.28 1.29 1.27 1.25 1.12 0.96 0.91 1.02 0.94 0.66 0.69 0.77 0.72 0.71 0.72 0.64 0.63 0.68 0.61 0.52 0.48 0.46 0.42 0.45 0.50 0.45 0.43 0.39 0.39 0.36 0.34 0.33 0.38 0.38 0.36 0.34 0.38 0.43 0.44 0.43 0.44 0.47 0.47 0.46
1.32 1.34 1.34 1.30 1.07 1.07 0.94 1.10 1.10 1.02 0.57 0.58 0.64 0.65 0.65 0.68 0.58 0.68 0.71 0.63 0.56 0.49 0.51 0.47 0.51 0.45 0.42 0.38 0.39 0.32 0.41 0.40 0.38 0.34 0.29 0.40 0.25 0.34 0.39 0.40 0.40 0.43 0.45 0.46 0.46
1.47 1.45 1.43 1.34 1.16 1.02 1.09 1.18 1.15 0.96 0.37 0.60 0.58 0.70 0.59 0.52 0.51 0.49 0.59 0.56 0.48 0.47 0.45 0.41 0.40 0.39 0.39 0.41 0.43 0.39 0.45 0.40 0.37 0.34 0.32 0.33 0.30 0.32 0.39 0.36 0.39 0.43 0.44 0.44 0.45
1.50 1.50 1.46 1.32 1.26 1.21 1.22 1.15 1.02 0.57 0.37 0.54 0.58 0.52 0.49 0.48 0.46 0.48 0.49 0.53 0.52 0.45 0.46 0.45 0.48 0.45 0.43 0.44 0.45 0.44 0.39 0.37 0.36 0.33 0.24 0.32 0.31 0.29 0.33 0.35 0.37 0.42 0.43 0.44 0.45
1.48 1.44 1.37 1.35 1.08 1.24 1.16 0.96 0.58 0.43 0.58 0.51 0.51 0.53 0.50 0.46 0.47 0.48 0.47 0.46 0.43 0.37 0.37 0.43 0.42 0.44 0.44 0.38 0.42 0.39 0.34 0.24 0.21 0.22 0.21 0.34 0.29 0.29 0.38 0.39 0.39 0.40 0.41 0.43 0.46
1.39 1.39 1.34 1.30 1.25 1.19 1.04 0.72 0.42 0.53 0.53 0.61 0.55 0.54 0.49 0.53 0.51 0.49 0.47 0.42 0.48 0.44 0.38 0.32 0.28 0.36 0.41 0.37 0.34 0.33 0.31 0.22 0.15 0.15 0.17 0.25 0.18 0.21 0.35 0.40 0.42 0.43 0.44 0.45 0.47
1.29 1.20 1.15 1.24 1.24 1.15 0.84 0.52 0.47 0.53 0.57 0.53 0.56 0.48 0.47 0.51 0.50 0.48 0.46 0.44 0.47 0.47 0.36 0.30 0.26 0.37 0.40 0.41 0.39 0.33 0.26 0.32 0.26 0.26 0.21 0.20 0.24 0.27 0.32 0.37 0.40 0.42 0.42 0.43 0.45
1.08 1.01 1.00 1.15 1.18 0.99 0.67 0.53 0.55 0.61 0.58 0.57 0.45 0.47 0.40 0.43 0.44 0.46 0.41 0.45 0.43 0.46 0.45 0.37 0.27 0.36 0.38 0.41 0.36 0.28 0.31 0.22 0.26 0.18 0.16 0.19 0.18 0.17 0.24 0.29 0.33 0.36 0.40 0.44 0.45
0.99 0.83 1.01 1.16 1.07 0.75 0.52 0.54 0.57 0.63 0.60 0.52 0.46 0.43 0.43 0.41 0.43 0.42 0.42 0.48 0.50 0.45 0.47 0.41 0.34 0.29 0.31 0.25 0.21 0.24 0.22 0.26 0.26 0.23 0.17 0.13 0.14 0.24 0.29 0.34 0.35 0.39 0.43 0.44 0.47
0.89 0.65 0.98 1.09 0.67 0.67 0.56 0.58 0.60 0.56 0.59 0.54 0.51 0.46 0.42 0.39 0.34 0.34 0.34 0.40 0.49 0.46 0.35 0.40 0.35 0.21 0.18 0.22 0.24 0.25 0.21 0.24 0.20 0.17 0.22 0.23 0.23 0.36 0.38 0.41 0.44 0.46 0.49 0.48 0.48
0.72 0.71 0.93 0.94 0.50 0.51 0.54 0.50 0.52 0.47 0.46 0.43 0.38 0.38 0.35 0.29 0.27 0.29 0.31 0.41 0.44 0.40 0.36 0.38 0.27 0.16 0.12 0.11 0.24 0.25 0.30 0.30 0.30 0.31 0.22 0.20 0.20 0.37 0.38 0.38 0.43 0.42 0.41 0.42 0.41
0.70 0.55 0.67 0.75 0.64 0.51 0.45 0.40 0.38 0.45 0.40 0.40 0.34 0.36 0.32 0.28 0.31 0.25 0.24 0.31 0.36 0.37 0.41 0.39 0.26 0.18 0.10 0.09 0.15 0.16 0.18 0.20 0.23 0.19 0.17 0.15 0.15 0.15 0.22 0.30 0.33 0.34 0.32 0.31 0.28
0.62 0.48 0.54 0.43 0.47 0.46 0.44 0.38 0.33 0.34 0.40 0.37 0.33 0.32 0.28 0.23 0.25 0.24 0.28 0.29 0.32 0.35 0.33 0.29 0.17 0.21 0.19 0.20 0.18 0.18 0.16 0.15 0.16 0.16 0.14 0.11 0.12 0.13 0.17 0.21 0.23 0.23 0.22 0.23 0.23
0.49 0.46 0.49 0.43 0.42 0.40 0.39 0.31 0.29 0.31 0.33 0.30 0.27 0.26 0.27 0.25 0.25 0.19 0.23 0.24 0.24 0.29 0.28 0.28 0.15 0.17 0.13 0.17 0.16 0.12 0.11 0.13 0.12 0.12 0.13 0.14 0.14 0.19 0.22 0.23 0.22 0.22 0.21 0.20 0.18
0.54 0.51 0.42 0.33 0.33 0.31 0.31 0.29 0.28 0.31 0.32 0.32 0.28 0.25 0.24 0.28 0.30 0.30 0.30 0.28 0.26 0.21 0.17 0.17 0.15 0.13 0.08 0.12 0.13 0.09 0.08 0.10 0.10 0.11 0.12 0.12 0.15 0.20 0.19 0.20 0.19 0.19 0.20 0.19 0.19

GFSSW_prec_pwat_030.txt.gz
Precipitable_Water
0.55 0.54 0.53 0.53 0.52 0.52 0.52 0.52 0.52 0.51 0.50 0.49 0.48 0.46 0.46 0.44 0.38 0.35 0.22 0.31 0.31 0.35 0.35 0.32 0.31 0.31 0.32 0.28 0.29 0.28 0.13 0.10 0.16 0.17 0.20 0.26 0.23 0.29 0.30 0.25 0.25 0.26 0.24 0.27 0.35
0.55 0.55 0.54 0.54 0.54 0.54 0.54 0.55 0.55 0.55 0.54 0.53 0.51 0.50 0.48 0.46 0.31 0.25 0.37 0.40 0.37 0.36 0.28 0.24 0.23 0.27 0.23 0.26 0.28 0.20 0.14 0.13 0.22 0.26 0.24 0.27 0.28 0.30 0.28 0.26 0.23 0.25 0.28 0.31 0.37
0.56 0.56 0.56 0.56 0.57 0.58 0.59 0.60 0.60 0.60 0.59 0.57 0.56 0.55 0.53 0.50 0.26 0.26 0.39 0.37 0.36 0.37 0.34 0.33 0.30 0.27 0.20 0.26 0.26 0.25 0.16 0.21 0.23 0.26 0.28 0.25 0.26 0.30 0.27 0.25 0.30 0.30 0.31 0.32 0.34
0.58 0.57 0.58 0.59 0.60 0.62 0.63 0.64 0.66 0.66 0.66 0.65 0.65 0.65 0.62 0.51 0.18 0.31 0.41 0.38 0.40 0.40 0.35 0.30 0.29 0.24 0.20 0.19 0.28 0.22 0.27 0.28 0.27 0.31 0.32 0.31 0.35 0.32 0.34 0.32 0.37 0.38 0.38 0.37 0.36
0.60 0.62 0.62 0.63 0.64 0.66 0.68 0.71 0.76 0.79 0.77 0.76 0.73 0.71 0.55 0.40 0.38 0.60 0.53 0.49 0.44 0.41 0.33 0.30 0.27 0.26 0.22 0.27 0.29 0.28 0.30 0.33 0.35 0.36 0.37 0.37 0.34 0.34 0.35 0.38 0.40 0.40 0.39 0.38 0.39
0.66 0.67 0.66 0.67 0.69 0.74 0.81 0.87 0.88 0.84 0.79 0.79 0.76 0.72 0.48 0.32 0.61 0.66 0.59 0.51 0.45 0.43 0.39 0.39 0.35 0.38 0.34 0.33 0.30 0.32 0.32 0.31 0.34 0.35 0.36 0.34 0.36 0.38 0.38 0.42 0.41 0.41 0.40 0.41 0.42
0.69 0.68 0.68 0.74 0.82 0.88 0.91 0.92 0.91 0.84 0.81 0.79 0.77 0.68 0.48 0.41 0.65 0.72 0.66 0.56 0.56 0.51 0.45 0.49 0.48 0.43 0.42 0.35 0.40 0.38 0.32 0.35 0.35 0.36 0.37 0.40 0.35 0.37 0.41 0.43 0.41 0.39 0.40 0.42 0.43
0.78 0.79 0.82 0.87 0.92 0.94 0.94 0.92 0.91 0.86 0.83 0.80 0.79 0.66 0.43 0.59 0.69 0.65 0.66 0.60 0.63 0.62 0.57 0.57 0.56 0.48 0.45 0.46 0.41 0.36 0.36 0.29 0.36 0.40 0.41 0.39 0.31 0.40 0.45 0.44 0.39 0.39 0.40 0.41 0.43
0.91 0.91 0.93 0.95 0.98 1.00 0.99 0.98 0.94 0.88 0.85 0.85 0.70 0.60 0.43 0.59 0.52 0.59 0.60 0.52 0.56 0.58 0.59 0.59 0.56 0.47 0.46 0.38 0.33 0.34 0.26 0.29 0.33 0.40 0.38 0.37 0.32 0.40 0.45 0.43 0.41 0.42 0.42 0.43 0.45
0.94 0.94 0.95 0.98 1.03 1.03 1.00 0.93 0.89 0.87 0.87 0.85 0.75 0.54 0.54 0.46 0.53 0.56 0.60 0.59 0.52 0.51 0.47 0.45 0.43 0.37 0.37 0.33 0.25 0.27 0.27 0.29 0.29 0.36 0.38 0.36 0.36 0.41 0.43 0.42 0.42 0.44 0.46 0.47 0.47
1.05 1.04 1.04 1.07 1.10 1.09 1.01 0.87 0.69 0.65 0.72 0.58 0.57 0.54 0.57 0.64 0.67 0.60 0.61 0.57 0.59 0.55 0.44 0.47 0.38 0.34 0.37 0.39 0.37 0.36 0.34 0.33 0.37 0.42 0.38 0.37 0.36 0.37 0.41 0.42 0.41 0.44 0.46 0.45 0.45
1.07 1.08 1.11 1.15 1.17 1.15 1.04 0.77 0.78 0.82 0.59 0.73 0.74 0.72 0.74 0.72 0.60 0.63 0.69 0.56 0.56 0.49 0.52 0.46 0.39 0.45 0.46 0.44 0.41 0.39 0.37 0.36 0.39 0.42 0.38 0.34 0.34 0.39 0.40 0.40 0.41 0.42 0.43 0.44 0.44
1.10 1.13 1.14 1.20 1.23 1.14 0.98 0.91 1.02 0.96 0.65 0.64 0.70 0.67 0.69 0.71 0.63 0.65 0.69 0.60 0.54 0.52 0.52 0.45 0.48 0.52 0.47 0.44 0.40 0.40 0.37 0.36 0.34 0.36 0.38 0.35 0.31 0.33 0.37 0.40 0.42 0.42 0.44 0.43 0.42
1.16 1.17 1.20 1.25 1.09 1.07 0.95 1.06 1.08 1.03 0.54 0.54 0.61 0.66 0.68 0.69 0.59 0.72 0.74 0.66 0.58 0.52 0.52 0.48 0.52 0.48 0.45 0.42 0.43 0.36 0.42 0.38 0.36 0.34 0.27 0.35 0.21 0.27 0.32 0.36 0.37 0.40 0.41 0.42 0.42
1.22 1.26 1.28 1.31 1.11 0.99 1.05 1.13 1.11 0.91 0.34 0.61 0.64 0.75 0.65 0.62 0.61 0.62 0.73 0.64 0.53 0.52 0.51 0.45 0.46 0.44 0.40 0.39 0.42 0.37 0.42 0.39 0.37 0.32 0.29 0.27 0.23 0.25 0.33 0.31 0.37 0.41 0.42 0.43 0.45
1.34 1.38 1.41 1.33 1.27 1.20 1.21 1.17 1.00 0.57 0.37 0.53 0.61 0.59 0.56 0.56 0.52 0.54 0.54 0.63 0.60 0.51 0.49 0.46 0.47 0.44 0.41 0.44 0.45 0.44 0.39 0.37 0.35 0.31 0.22 0.25 0.24 0.24 0.29 0.33 0.37 0.38 0.40 0.41 0.43
1.45 1.46 1.42 1.40 1.11 1.32 1.25 1.03 0.60 0.44 0.61 0.52 0.53 0.56 0.52 0.49 0.48 0.47 0.45 0.43 0.39 0.36 0.37 0.41 0.41 0.46 0.47 0.40 0.43 0.39 0.34 0.25 0.21 0.21 0.19 0.28 0.25 0.26 0.34 0.38 0.37 0.36 0.37 0.40 0.43
1.47 1.48 1.45 1.39 1.42 1.34 1.17 0.77 0.47 0.55 0.56 0.61 0.57 0.55 0.48 0.50 0.48 0.46 0.44 0.41 0.45 0.44 0.40 0.35 0.32 0.43 0.46 0.41 0.37 0.35 0.33 0.24 0.16 0.16 0.18 0.29 0.20 0.24 0.33 0.35 0.36 0.36 0.38 0.41 0.42
1.49 1.38 1.29 1.36 1.37 1.31 0.96 0.56 0.51 0.58 0.64 0.57 0.55 0.50 0.49 0.52 0.52 0.48 0.45 0.44 0.48 0.48 0.38 0.35 0.35 0.45 0.44 0.44 0.41 0.35 0.31 0.37 0.29 0.29 0.23 0.23 0.25 0.30 0.32 0.31 0.34 0.37 0.38 0.39 0.41
1.25 1.17 1.14 1.36 1.38 1.17 0.80 0.57 0.61 0.70 0.68 0.65 0.50 0.54 0.46 0.49 0.48 0.47 0.45 0.47 0.46 0.49 0.50 0.42 0.32 0.42 0.43 0.45 0.43 0.37 0.39 0.27 0.30 0.18 0.15 0.16 0.17 0.17 0.23 0.27 0.32 0.34 0.36 0.38 0.40
1.16 0.94 1.12 1.33 1.25 0.92 0.61 0.60 0.66 0.72 0.67 0.61 0.57 0.55 0.53 0.48 0.49 0.44 0.42 0.47 0.48 0.47 0.50 0.45 0.37 0.34 0.38 0.33 0.29 0.30 0.26 0.28 0.27 0.24 0.16 0.13 0.12 0.24 0.26 0.29 0.30 0.33 0.35 0.36 0.38
1.03 0.74 1.13 1.22 0.77 0.74 0.62 0.66 0.73 0.68 0.72 0.65 0.63 0.57 0.51 0.50 0.45 0.44 0.41 0.44 0.52 0.49 0.40 0.44 0.36 0.27 0.30 0.37 0.36 0.31 0.27 0.28 0.21 0.19 0.23 0.20 0.12 0.29 0.30 0.33 0.35 0.34 0.35 0.39 0.38
0.84 0.81 1.07 1.03 0.58 0.59 0.68 0.67 0.68 0.65 0.67 0.65 0.59 0.58 0.57 0.50 0.43 0.46 0.44 0.52 0.53 0.48 0.42 0.44 0.34 0.24 0.25 0.30 0.35 0.29 0.30 0.29 0.29 0.27 0.18 0.16 0.16 0.31 0.32 0.33 0.37 0.33 0.33 0.32 0.30
0.82 0.62 0.76 0.83 0.77 0.64 0.60 0.60 0.61 0.69 0.64 0.65 0.61 0.60 0.54 0.50 0.52 0.44 0.41 0.46 0.48 0.46 0.47 0.44 0.32 0.24 0.17 0.18 0.24 0.21 0.23 0.26 0.24 0.19 0.19 0.17 0.19 0.22 0.28 0.29 0.28 0.23 0.20 0.22 0.24
0.79 0.63 0.71 0.55 0.61 0.64 0.65 0.62 0.59 0.55 0.66 0.67 0.58 0.54 0.51 0.44 0.44 0.41 0.41 0.41 0.43 0.45 0.45 0.42 0.30 0.33 0.33 0.31 0.28 0.24 0.21 0.25 0.23 0.22 0.17 0.13 0.14 0.13 0.14 0.15 0.14 0.14 0.17 0.21 0.25
0.67 0.63 0.68 0.63 0.64 0.62 0.61 0.55 0.53 0.56 0.57 0.53 0.50 0.51 0.51 0.44 0.43 0.37 0.39 0.37 0.35 0.42 0.39 0.41 0.29 0.31 0.25 0.29 0.29 0.24 0.22 0.22 0.20 0.16 0.16 0.13 0.10 0.12 0.13 0.14 0.14 0.16 0.18 0.20 0.22
0.75 0.76 0.68 0.58 0.58 0.56 0.54 0.55 0.56 0.58 0.59 0.57 0.52 0.48 0.45 0.44 0.47 0.46 0.44 0.44 0.43 0.40 0.37 0.35 0.30 0.25 0.18 0.22 0.20 0.14 0.13 0.12 0.10 0.10 0.10 0.08 0.09 0.14 0.12 0.14 0.16 0.18 0.18 0.18 0.18

GFSSW_prec_pwat_033.txt.gz
Precipitable_Water
0.52 0.52 0.52 0.51 0.51 0.51 0.51 0.52 0.53 0.53 0.53 0.52 0.50 0.49 0.47 0.45 0.40 0.33 0.20 0.32 0.33 0.36 0.34 0.31 0.30 0.30 0.30 0.26 0.28 0.26 0.12 0.10 0.14 0.16 0.19 0.25 0.23 0.28 0.33 0.29 0.29 0.29 0.28 0.30 0.34
0.53 0.52 0.52 0.52 0.53 0.53 0.54 0.55 0.56 0.57 0.57 0.55 0.54 0.53 0.52 0.50 0.35 0.25 0.37 0.41 0.39 0.38 0.28 0.24 0.22 0.26 0.21 0.23 0.26 0.18 0.12 0.12 0.19 0.24 0.23 0.25 0.26 0.28 0.27 0.26 0.26 0.29 0.34 0.37 0.37
0.54 0.53 0.53 0.54 0.54 0.56 0.58 0.60 0.61 0.62 0.62 0.60 0.59 0.58 0.56 0.54 0.30 0.25 0.40 0.38 0.39 0.37 0.33 0.32 0.29 0.26 0.19 0.25 0.25 0.22 0.14 0.19 0.22 0.26 0.27 0.25 0.27 0.33 0.30 0.29 0.33 0.32 0.35 0.37 0.38
0.55 0.54 0.55 0.56 0.57 0.59 0.62 0.64 0.66 0.68 0.67 0.65 0.66 0.65 0.63 0.51 0.21 0.32 0.41 0.37 0.39 0.39 0.34 0.31 0.28 0.23 0.20 0.18 0.26 0.20 0.26 0.27 0.28 0.31 0.31 0.29 0.35 0.34 0.35 0.34 0.39 0.40 0.39 0.39 0.38
0.57 0.57 0.58 0.59 0.61 0.63 0.66 0.69 0.72 0.75 0.74 0.73 0.73 0.70 0.55 0.38 0.38 0.61 0.55 0.49 0.44 0.42 0.35 0.30 0.27 0.27 0.21 0.25 0.28 0.28 0.31 0.33 0.35 0.35 0.34 0.35 0.34 0.35 0.35 0.39 0.42 0.42 0.42 0.43 0.44
0.61 0.61 0.63 0.63 0.65 0.67 0.71 0.76 0.82 0.85 0.80 0.78 0.76 0.72 0.48 0.31 0.59 0.65 0.58 0.51 0.47 0.44 0.38 0.39 0.35 0.37 0.32 0.31 0.31 0.33 0.33 0.33 0.33 0.33 0.34 0.32 0.35 0.38 0.39 0.43 0.43 0.44 0.45 0.46 0.45
0.66 0.68 0.67 0.66 0.68 0.74 0.82 0.88 0.89 0.88 0.82 0.79 0.76 0.67 0.48 0.41 0.63 0.69 0.62 0.55 0.54 0.49 0.42 0.47 0.49 0.43 0.42 0.36 0.41 0.39 0.33 0.36 0.36 0.35 0.36 0.40 0.36 0.37 0.42 0.45 0.44 0.44 0.46 0.47 0.46
0.71 0.71 0.70 0.71 0.77 0.86 0.91 0.92 0.90 0.87 0.82 0.80 0.78 0.65 0.42 0.57 0.69 0.63 0.62 0.58 0.61 0.59 0.54 0.55 0.54 0.47 0.44 0.46 0.40 0.36 0.36 0.30 0.34 0.38 0.40 0.39 0.31 0.39 0.43 0.42 0.41 0.44 0.45 0.46 0.46
0.78 0.79 0.79 0.83 0.89 0.95 0.97 0.94 0.90 0.88 0.86 0.86 0.71 0.58 0.42 0.58 0.52 0.59 0.60 0.52 0.56 0.57 0.57 0.58 0.54 0.47 0.45 0.37 0.33 0.34 0.27 0.28 0.31 0.38 0.37 0.34 0.30 0.39 0.45 0.44 0.43 0.45 0.46 0.46 0.47
0.90 0.91 0.90 0.92 0.96 1.00 1.00 0.97 0.89 0.87 0.84 0.84 0.74 0.52 0.54 0.46 0.53 0.56 0.60 0.58 0.51 0.51 0.49 0.48 0.46 0.40 0.40 0.35 0.26 0.28 0.28 0.31 0.31 0.37 0.38 0.36 0.36 0.42 0.45 0.43 0.41 0.43 0.44 0.45 0.46
0.97 0.95 0.94 0.95 0.99 1.04 0.98 0.85 0.66 0.61 0.69 0.51 0.51 0.52 0.52 0.59 0.62 0.56 0.61 0.56 0.53 0.47 0.38 0.43 0.36 0.35 0.38 0.40 0.38 0.36 0.34 0.32 0.37 0.42 0.38 0.37 0.37 0.38 0.41 0.41 0.41 0.43 0.43 0.43 0.43
1.07 1.06 1.04 1.06 1.11 1.14 1.05 0.75 0.72 0.76 0.55 0.70 0.71 0.66 0.68 0.67 0.56 0.60 0.65 0.51 0.48 0.42 0.46 0.43 0.38 0.48 0.48 0.45 0.41 0.39 0.35 0.35 0.39 0.42 0.39 0.37 0.33 0.38 0.41 0.40 0.41 0.40 0.40 0.41 0.41
1.10 1.08 1.09 1.14 1.18 1.11 0.95 0.87 0.97 0.93 0.64 0.65 0.73 0.70 0.71 0.71 0.61 0.60 0.64 0.57 0.51 0.48 0.48 0.43 0.45 0.52 0.50 0.47 0.42 0.41 0.37 0.36 0.35 0.39 0.38 0.33 0.31 0.34 0.39 0.40 0.40 0.41 0.42 0.42 0.41
1.11 1.12 1.14 1.18 1.05 1.03 0.88 1.04 1.05 1.02 0.56 0.55 0.62 0.68 0.71 0.71 0.59 0.70 0.68 0.60 0.52 0.48 0.51 0.49 0.56 0.52 0.50 0.45 0.45 0.37 0.44 0.41 0.36 0.33 0.27 0.35 0.22 0.28 0.33 0.33 0.36 0.39 0.40 0.41 0.39
1.18 1.16 1.18 1.18 1.01 0.89 0.98 1.10 1.10 0.92 0.35 0.57 0.61 0.75 0.71 0.66 0.63 0.65 0.75 0.64 0.52 0.54 0.55 0.50 0.51 0.47 0.43 0.43 0.47 0.39 0.43 0.38 0.36 0.33 0.30 0.29 0.24 0.25 0.31 0.29 0.33 0.38 0.40 0.40 0.39
1.28 1.23 1.23 1.17 1.14 1.12 1.15 1.17 1.03 0.59 0.35 0.50 0.59 0.56 0.57 0.62 0.59 0.61 0.63 0.67 0.66 0.56 0.55 0.53 0.55 0.50 0.45 0.45 0.45 0.45 0.40 0.39 0.36 0.31 0.22 0.27 0.25 0.22 0.26 0.31 0.34 0.40 0.43 0.42 0.39
1.36 1.34 1.28 1.27 0.99 1.32 1.22 1.04 0.61 0.45 0.58 0.48 0.51 0.55 0.53 0.53 0.52 0.51 0.50 0.50 0.46 0.42 0.41 0.46 0.46 0.47 0.46 0.40 0.44 0.42 0.37 0.27 0.23 0.22 0.19 0.28 0.23 0.22 0.32 0.36 0.38 0.39 0.40 0.39 0.39
1.43 1.43 1.36 1.32 1.39 1.35 1.15 0.79 0.47 0.51 0.52 0.58 0.55 0.54 0.49 0.52 0.50 0.48 0.45 0.43 0.48 0.45 0.40 0.35 0.32 0.43 0.47 0.42 0.39 0.38 0.36 0.28 0.18 0.18 0.18 0.27 0.20 0.24 0.36 0.40 0.41 0.40 0.37 0.37 0.36
1.46 1.35 1.30 1.35 1.39 1.31 0.94 0.57 0.51 0.56 0.64 0.57 0.55 0.48 0.47 0.51 0.49 0.46 0.43 0.42 0.44 0.46 0.39 0.37 0.36 0.47 0.46 0.47 0.44 0.37 0.32 0.39 0.29 0.29 0.22 0.23 0.26 0.31 0.34 0.34 0.34 0.33 0.34 0.34 0.36
1.28 1.20 1.16 1.38 1.41 1.16 0.80 0.60 0.62 0.71 0.70 0.62 0.49 0.51 0.45 0.50 0.47 0.47 0.45 0.49 0.48 0.52 0.53 0.45 0.34 0.44 0.45 0.46 0.45 0.40 0.41 0.29 0.31 0.20 0.16 0.18 0.18 0.18 0.23 0.25 0.30 0.32 0.35 0.37 0.40
1.17 0.95 1.17 1.37 1.31 0.94 0.63 0.64 0.70 0.77 0.72 0.60 0.55 0.53 0.51 0.49 0.49 0.46 0.46 0.51 0.55 0.53 0.53 0.48 0.41 0.38 0.43 0.38 0.35 0.35 0.31 0.32 0.30 0.26 0.17 0.13 0.13 0.24 0.24 0.29 0.32 0.35 0.39 0.40 0.40
1.04 0.76 1.15 1.27 0.81 0.79 0.67 0.73 0.77 0.71 0.76 0.68 0.65 0.60 0.55 0.55 0.51 0.49 0.46 0.51 0.56 0.53 0.44 0.49 0.42 0.32 0.34 0.42 0.44 0.38 0.31 0.31 0.22 0.19 0.22 0.20 0.15 0.32 0.32 0.35 0.37 0.37 0.36 0.38 0.39
0.86 0.84 1.08 1.07 0.63 0.64 0.72 0.71 0.73 0.68 0.68 0.66 0.64 0.64 0.63 0.57 0.51 0.52 0.52 0.57 0.57 0.51 0.44 0.47 0.38 0.29 0.30 0.36 0.40 0.34 0.34 0.32 0.30 0.27 0.21 0.19 0.17 0.34 0.36 0.36 0.37 0.34 0.34 0.34 0.34
0.77 0.63 0.79 0.85 0.81 0.69 0.64 0.64 0.64 0.77 0.72 0.74 0.69 0.67 0.61 0.58 0.58 0.48 0.48 0.54 0.57 0.54 0.56 0.52 0.40 0.32 0.24 0.27 0.31 0.29 0.29 0.30 0.29 0.24 0.23 0.21 0.22 0.30 0.33 0.32 0.34 0.36 0.34 0.30 0.25
0.78 0.65 0.73 0.58 0.63 0.68 0.69 0.64 0.60 0.58 0.70 0.72 0.63 0.63 0.59 0.52 0.51 0.48 0.51 0.52 0.55 0.56 0.55 0.50 0.36 0.37 0.36 0.33 0.32 0.28 0.25 0.26 0.25 0.26 0.23 0.22 0.21 0.23 0.28 0.28 0.28 0.27 0.22 0.18 0.19
0.70 0.66 0.73 0.66 0.70 0.64 0.63 0.58 0.58 0.61 0.62 0.59 0.59 0.62 0.61 0.54 0.53 0.48 0.51 0.51 0.47 0.52 0.47 0.47 0.34 0.36 0.33 0.35 0.33 0.30 0.30 0.31 0.31 0.30 0.28 0.26 0.22 0.29 0.29 0.25 0.17 0.15 0.16 0.17 0.19
0.78 0.78 0.66 0.61 0.63 0.59 0.57 0.59 0.58 0.63 0.65 0.67 0.64 0.60 0.56 0.59 0.64 0.60 0.58 0.54 0.50 0.44 0.42 0.41 0.36 0.31 0.26 0.32 0.31 0.25 0.26 0.28 0.28 0.26 0.25 0.19 0.16 0.18 0.13 0.12 0.14 0.15 0.16 0.16 0.18